カタログに戻る

STARLINK-37379

運用中通信VLEO
NORAD 69522·PAYLOAD·🇺🇸 United States

打ち上げ Jun 12, 2026 から Cape Canaveral Space Force Station

Loading…

次のパス (今後24時間)

TLE

最新Source: CelesTrak SupGP

元期: Sep 15, 2026, 04:00 UTC

1 69522C 26133Q   26258.16715278 -.00049222  00000+0 -14541-2 0  2584
2 69522  53.1565 254.5169 0001265  90.7257  34.0085 15.34418530    12

AllMySatでSTARLINK-37379をリアルタイム追跡

Download on the App Store